Minot AFB, ND

11:18 AM CDT on March 28, 2017 (GMT -0500)
Minot Air Force Base

Weather History for KMIB - May, 2013

Change the Weather History Date:

Friday, May 10, 2013

  Actual Average Record
Temperature  
Mean Temperature 48 °F -  
Max Temperature 63 °F 60 °F 77 °F (1997)
Min Temperature 33 °F 38 °F 29 °F (2008)
Degree Days  
Heating Degree Days 18    
Moisture  
Dew Point 28 °F    
Average Humidity 45    
Maximum Humidity 79    
Minimum Humidity 23    
Precipitation  
Precipitation 0.00 in - - ()
Sea Level Pressure  
Sea Level Pressure 30.13 in    
Wind  
Wind Speed 14 mph (WNW)    
Max Wind Speed 29 mph    
Max Gust Speed 38 mph    
Visibility 10 miles    
Events      
Averages and records for this station are not official NWS values.
T = Trace of Precipitation, MM = Missing Value Source: NWS Daily Summary

Daily Weather History Graph

Daily Weather History Graph

Search for Another Location

Airport or City:

Trip Planner

Search our weather history database for the weather conditions in past years. The results will help you decide how hot, cold, wet, or windy it might be!

Date:

Astronomy

May. 10, 2013 Rise Set
Actual Time 6:11 AM CDT 9:12 PM CDT
Civil Twilight 5:35 AM CDT 9:49 PM CDT
Nautical Twilight 4:47 AM CDT 10:37 PM CDT
Astronomical Twilight 3:49 AM CDT 11:36 PM CDT
Moon 6:36 AM CDT (5/10) 10:05 PM CDT (5/10)
Length of Visible Light 16h 14m
Length of Day
15h 01m
New Moon, 0% of the Moon is Illuminated
May 10
New Moon
May 17
First Quarter
May 24
Full
May 31
Last Quarter
Jun 8
New

Hourly Weather History & Observations

Time (CDT) Temp. Windchill Dew Point Humidity Pressure Visibility Wind Dir Wind Speed Gust Speed Precip Events Conditions
12:55 AM 34.5 °F 29.4 °F 28.6 °F 79% 30.21 in 10.0 mi South 5.8 mph - N/A   Clear
1:55 AM 33.4 °F 27.3 °F 26.6 °F 76% 30.19 in 10.0 mi South 6.9 mph - N/A   Clear
2:55 AM 36.3 °F 30.8 °F 27.1 °F 69% 30.16 in 10.0 mi South 6.9 mph - N/A   Clear
3:55 AM 38.8 °F 32.6 °F 27.5 °F 64% 30.13 in 10.0 mi SSW 9.2 mph - N/A   Clear
4:55 AM 34.7 °F 27.5 °F 27.1 °F 74% 30.11 in 10.0 mi South 9.2 mph - N/A   Clear
5:55 AM 35.2 °F 29.5 °F 28.8 °F 77% 30.07 in 10.0 mi South 6.9 mph - N/A   Clear
6:55 AM 43.2 °F 35.9 °F 29.3 °F 58% 30.03 in 10.0 mi SW 15.0 mph - N/A   Clear
7:55 AM 48.9 °F - 28.9 °F 46% 30.02 in 10.0 mi SW 18.4 mph - N/A   Partly Cloudy
8:55 AM 53.6 °F - 28.2 °F 38% 30.00 in 10.0 mi WSW 19.6 mph 27.6 mph N/A   Scattered Clouds
9:55 AM 57.6 °F - 32.0 °F 38% 29.99 in 10.0 mi West 19.6 mph 26.5 mph N/A   Clear
10:55 AM 62.2 °F - 33.3 °F 34% 29.99 in 10.0 mi NW 28.8 mph 38.0 mph N/A   Clear
11:55 AM 62.4 °F - 31.3 °F 31% 30.03 in 10.0 mi NNW 25.3 mph 36.8 mph N/A   Clear
12:55 PM 62.2 °F - 38.5 °F 41% 30.08 in 10.0 mi NNW 26.5 mph 32.2 mph N/A   Partly Cloudy
1:55 PM 61.2 °F - 35.1 °F 38% 30.09 in 10.0 mi North 20.7 mph 28.8 mph N/A   Mostly Cloudy
2:55 PM 62.6 °F - 30.0 °F 29% 30.12 in 10.0 mi NNW 19.6 mph 29.9 mph N/A   Scattered Clouds
3:55 PM 61.9 °F - 29.7 °F 30% 30.13 in 10.0 mi North 19.6 mph 33.4 mph N/A   Scattered Clouds
4:55 PM 61.2 °F - 25.5 °F 26% 30.14 in 10.0 mi NNW 27.6 mph 34.5 mph N/A   Clear
5:55 PM 59.9 °F - 25.0 °F 26% 30.17 in 10.0 mi NNW 20.7 mph 32.2 mph N/A   Clear
6:55 PM 58.3 °F - 20.7 °F 23% 30.17 in 10.0 mi NNW 25.3 mph 32.2 mph N/A   Clear
7:55 PM 55.4 °F - 20.5 °F 26% 30.19 in 10.0 mi NNW 28.8 mph 33.4 mph N/A   Clear
8:55 PM 51.4 °F - 23.4 °F 33% 30.22 in 10.0 mi NNW 20.7 mph 27.6 mph N/A   Clear
9:55 PM 48.7 °F - 24.4 °F 39% 30.25 in 10.0 mi NNW 12.7 mph - N/A   Overcast
10:55 PM 48.2 °F - 23.7 °F 38% 30.27 in 10.0 mi North 16.1 mph 21.9 mph N/A   Scattered Clouds
11:55 PM 45.1 °F 38.1 °F 22.5 °F 41% 30.30 in 10.0 mi North 16.1 mph - N/A   Partly Cloudy